Location: Schommer Observatory
(40.5200°N, 74.4500°W)
Time: 09:15:57
(UTC-05:00)

Envisat - Visible Passes

Search period start: 21 January 2019 00:00
Search period end: 31 January 2019 00:00
Orbit: 764 x 766 km, 98.2° (Epoch: 20 January)

Date Brightness Start Highest point End Pass type
(mag) Time Alt. Az. Time Alt. Az. Time Alt. Az.
21 Jan 6.2 06:14:12 10° ENE 06:16:35 13° E 06:18:58 10° ESE visible
21 Jan 4.3 17:28:09 10° ESE 17:31:32 18° ENE 17:34:57 10° NNE visible
21 Jan 3.7 19:05:09 10° S 19:10:06 55° W 19:15:07 10° NNW visible
22 Jan 2.9 18:28:20 10° SSE 18:33:22 67° ENE 18:38:26 10° N visible
22 Jan 5.9 20:10:20 10° WSW 20:12:51 14° W 20:15:22 10° WNW visible
23 Jan 5.7 06:38:19 10° NE 06:42:23 24° E 06:46:26 10° SSE visible
23 Jan 3.7 17:52:26 10° SE 17:56:49 31° ENE 18:01:14 10° N visible
23 Jan 4.8 19:31:19 10° SSW 19:35:46 31° W 19:40:15 10° NW visible
24 Jan 3.2 18:53:50 10° S 18:58:53 70° WSW 19:03:58 10° NNW visible
25 Jan 3.1 18:17:17 10° SSE 18:22:12 53° ENE 18:27:08 10° N visible
25 Jan 5.6 19:58:11 10° SW 20:01:31 18° W 20:04:53 10° NW visible
26 Jan 5.9 06:27:33 10° NE 06:31:05 19° E 06:34:37 10° SE visible
26 Jan 4.0 17:41:40 10° ESE 17:45:43 25° ENE 17:49:46 10° NNE visible
26 Jan 4.3 19:19:47 10° SSW 19:24:30 39° W 19:29:16 10° NNW visible
27 Jan 2.9 18:42:36 10° SSE 18:47:41 88° WSW 18:52:47 10° NNW visible
28 Jan 3.3 18:06:19 10° SE 18:11:03 42° ENE 18:15:49 10° N visible
28 Jan 5.3 19:46:18 10° SW 19:50:13 22° W 19:54:09 10° NW visible
29 Jan 6.1 06:16:58 10° ENE 06:19:46 15° E 06:22:33 10° SE visible
29 Jan 3.9 19:08:21 10° S 19:13:15 50° W 19:18:12 10° NNW visible
30 Jan 2.9 18:31:26 10° SSE 18:36:29 74° ENE 18:41:34 10° N visible
30 Jan 6.1 20:13:59 10° WSW 20:16:02 12° W 20:18:05 10° WNW visible
